GFSSGP_250_rhum_153.txt.gz
RH
59 62 52 50 42 37 31 30 22 22 24 26 36 36 32 31 32 29 29 29 28 28 24 27 29 33 38 41 46 45 49 53 56 50 40 42 43 46 43 40 33 32 30 30 23 19 15 12 11
74 82 81 52 31 34 33 32 30 27 25 25 26 25 23 22 20 22 24 21 19 18 19 25 21 24 29 31 31 32 32 38 45 43 40 36 31 27 23 22 23 23 20 16 15 14 12 12 12
89 85 84 57 45 39 32 26 23 25 26 27 25 24 24 24 24 23 23 22 21 21 23 26 26 24 22 26 30 28 24 22 23 23 20 20 20 20 18 17 17 17 18 17 15 15 17 16 16
100 100 100 68 70 54 27 25 23 22 21 20 22 25 26 27 29 30 31 28 30 32 29 25 33 46 56 38 28 21 22 23 23 20 27 27 25 21 19 20 21 22 20 19 19 20 20 20 20
59 78 100 84 82 81 41 27 25 25 26 29 30 25 24 25 29 36 34 26 32 31 27 37 36 38 48 47 33 30 26 26 23 25 28 29 29 26 26 25 28 24 22 22 23 24 22 23 24
50 100 100 100 66 61 63 48 35 23 29 29 31 26 25 26 32 36 34 26 32 38 29 44 46 44 41 44 48 50 37 29 27 25 26 28 27 28 29 32 34 27 25 26 24 25 24 23 22
61 84 99 100 76 78 59 44 38 39 38 32 36 33 23 22 27 28 34 35 40 40 50 54 57 57 43 44 41 59 54 36 36 58 48 35 34 46 35 42 37 27 25 25 24 26 27 26 26
77 75 70 82 96 88 84 75 50 33 34 30 38 30 26 22 21 25 37 45 39 34 56 63 57 58 55 45 36 47 74 100 62 38 73 87 66 59 50 40 35 29 27 28 28 28 30 32 33
100 99 90 92 95 93 96 83 68 32 33 35 25 27 27 26 21 26 44 53 47 46 55 71 66 63 64 60 50 36 42 57 83 98 45 50 94 100 96 34 34 31 31 37 56 69 62 46 48
92 85 86 67 53 47 46 48 56 48 49 48 41 29 30 23 23 26 48 58 52 57 86 79 71 55 55 83 79 46 39 44 50 78 98 81 62 43 100 92 60 42 54 84 74 96 76 76 66
100 82 77 72 62 47 44 64 50 46 56 54 46 38 30 26 22 26 48 62 61 84 83 78 81 69 60 60 78 81 62 51 42 48 66 76 82 46 43 100 100 69 63 89 92 89 100 92 95
78 58 50 50 48 39 44 57 57 47 45 48 38 28 27 25 26 31 45 63 78 92 88 83 83 76 68 60 58 64 82 77 53 40 40 46 49 76 55 50 83 93 89 81 80 86 76 94 98
71 56 36 35 42 64 53 46 48 52 49 40 34 31 26 23 26 34 48 59 81 86 96 87 86 79 82 94 83 74 68 60 78 80 58 44 46 40 63 75 67 61 95 100 100 100 97 85 50
52 45 55 71 85 93 72 60 48 40 34 32 26 26 25 23 24 32 42 47 67 96 100 100 100 100 100 100 100 100 95 94 84 71 76 73 57 44 38 39 49 61 68 91 84 64 72 43 39
92 87 96 93 88 78 65 45 37 29 31 32 30 29 28 27 26 29 39 52 65 85 79 90 87 86 93 99 96 99 100 100 90 78 62 70 70 50 42 38 37 38 45 74 78 54 72 92 70
99 100 99 94 77 51 50 46 42 44 40 39 36 34 33 29 27 29 29 45 55 63 85 76 77 81 69 92 100 100 100 100 91 78 62 58 52 56 53 57 56 44 39 41 62 96 85 100 100
100 100 100 96 73 49 40 34 32 32 32 32 32 31 34 31 31 32 31 31 42 54 51 57 64 70 67 61 58 69 92 99 94 93 82 59 53 47 43 53 60 49 41 33 34 84 100 100 100
100 100 100 96 94 80 62 45 46 40 35 33 34 34 32 34 34 37 34 35 32 33 39 48 52 64 71 66 75 80 76 60 63 69 69 72 68 58 43 41 41 44 42 34 26 44 100 100 98
100 100 100 100 100 100 95 83 72 62 56 49 46 41 41 38 34 40 39 39 41 39 34 33 34 40 48 50 50 59 65 58 62 66 53 44 43 50 49 37 33 35 34 32 28 29 87 100 100
100 100 100 100 100 96 99 93 90 73 66 58 56 49 50 42 47 56 56 52 48 41 44 44 48 56 70 79 63 60 63 68 78 69 60 56 62 48 35 32 32 28 29 28 25 26 38 100 100
100 100 100 100 100 100 89 75 78 80 69 64 62 51 51 56 73 76 79 73 65 59 61 50 46 44 39 36 65 99 100 100 100 100 100 100 100 80 68 49 33 29 23 26 23 21 24 54 96
86 95 96 98 96 93 94 83 88 86 92 70 57 53 56 87 97 81 77 76 74 71 69 68 62 56 46 42 39 42 54 68 76 80 82 81 76 71 51 38 38 37 24 19 22 22 19 25 58
90 88 95 93 90 98 100 89 87 89 72 64 61 80 89 82 88 96 93 78 89 79 70 65 64 58 57 59 60 56 46 41 40 38 36 32 32 29 27 26 19 15 18 14 13 20 18 17 28
96 92 97 100 85 66 63 83 82 88 98 100 100 100 100 83 91 85 83 91 97 87 74 65 66 83 89 85 58 45 44 39 33 28 25 23 20 18 18 18 15 14 12 13 14 12 15 16 19
100 98 100 99 93 95 100 98 94 98 100 100 100 100 100 95 90 95 100 100 97 81 71 68 76 77 84 68 64 56 42 36 32 28 24 21 20 19 18 16 14 14 12 11 11 11 10 11 13
100 100 99 100 100 100 100 84 83 100 100 100 100 100 100 99 100 100 100 96 94 90 83 78 85 95 83 67 74 64 44 38 31 23 21 21 17 15 12 12 10 11 11 10 10 10 10 10 11
100 94 100 95 87 80 84 88 81 92 100 100 100 100 100 92 99 100 100 100 98 90 87 82 83 93 88 70 64 54 42 33 27 21 20 20 17 14 13 13 12 11 12 12 11 9 8 9 10
99 100 100 95 91 99 90 87 95 100 100 100 91 93 93 89 80 94 97 98 92 94 94 87 86 84 77 66 60 46 38 36 26 22 22 21 18 16 13 13 12 11 11 11 10 10 9 9 9
100 100 100 100 100 100 85 91 100 100 100 97 98 91 95 90 87 90 98 100 100 100 97 94 88 77 68 58 51 39 44 32 26 25 22 18 15 13 13 12 12 10 8 8 8 9 10 10 9
100 100 100 100 100 100 94 79 94 91 85 80 80 95 88 92 98 100 92 90 84 88 91 91 76 63 57 52 43 45 36 30 25 20 18 16 14 13 14 14 13 13 12 10 8 8 8 9 10

GFSSGP_250_rhum_156.txt.gz
RH
62 88 77 72 61 47 48 36 30 34 40 35 29 24 23 22 20 19 24 56 33 19 19 20 20 19 18 18 19 20 18 20 26 31 33 36 39 41 42 39 37 38 38 38 33 23 21 18 14
73 74 81 98 70 65 60 44 37 35 29 27 27 26 25 25 23 22 21 20 20 22 24 24 24 21 19 16 18 20 22 20 19 27 27 27 30 34 33 32 31 28 32 27 22 17 16 16 15
63 60 77 94 100 95 85 62 58 37 26 22 22 22 22 24 24 23 23 21 20 28 24 20 20 23 22 24 23 33 44 42 26 20 19 21 22 22 25 26 25 25 18 18 19 18 17 17 17
81 66 62 58 71 100 100 95 81 41 27 25 25 25 32 30 28 26 24 21 19 23 25 18 19 21 25 36 30 32 38 42 32 30 27 27 26 20 21 23 24 21 22 23 23 20 20 22 20
92 96 68 68 46 99 100 100 89 73 44 33 28 27 36 40 32 32 25 22 19 18 20 18 21 26 22 40 58 49 39 44 46 39 31 33 32 40 30 25 25 26 29 28 25 24 26 24 23
83 90 75 69 55 90 100 100 96 72 61 51 52 50 42 41 40 40 28 22 19 17 17 17 21 29 25 27 38 43 43 47 52 58 36 33 56 50 42 48 31 33 39 39 28 26 25 25 23
85 84 71 72 52 61 97 100 82 65 65 71 64 41 47 49 46 35 28 26 22 20 18 19 25 32 31 32 57 66 60 56 48 89 86 37 64 80 56 56 57 52 55 50 34 28 25 25 28
84 86 70 76 73 51 71 93 100 100 100 96 73 39 41 37 32 30 27 30 28 22 18 19 27 34 35 40 48 69 84 61 52 71 100 100 49 100 93 86 79 69 60 42 32 32 31 30 33
94 100 78 83 90 74 92 81 73 63 54 58 91 71 44 42 46 45 37 32 25 20 18 22 32 44 42 59 68 66 69 66 59 45 83 98 100 71 78 100 100 100 72 46 42 39 35 57 77
93 100 81 97 95 80 75 69 56 44 46 52 49 49 53 56 50 43 30 27 22 20 20 26 44 48 48 60 86 86 70 65 66 56 41 48 59 90 69 60 84 81 99 78 73 50 51 64 80
96 100 95 86 75 61 53 60 48 43 48 50 63 66 60 54 52 40 32 26 24 21 23 30 44 50 59 64 53 51 69 71 59 55 54 43 39 43 67 72 95 71 100 95 98 77 91 92 94
98 100 100 82 65 56 40 28 36 51 71 68 58 47 46 43 41 30 28 28 26 23 26 39 52 69 66 60 63 59 53 59 74 77 66 61 55 44 45 64 86 87 100 100 100 100 100 87 86
95 100 100 78 64 60 44 32 53 73 62 59 47 42 33 32 33 31 31 29 28 26 26 36 42 55 82 100 97 82 60 43 53 74 79 68 49 47 44 38 43 53 84 100 100 98 90 98 100
72 72 67 60 64 76 59 52 52 46 48 52 50 34 28 26 30 34 35 33 29 28 29 32 54 81 100 100 100 100 100 68 58 58 70 73 76 69 48 44 38 37 55 80 100 100 100 100 100
96 64 55 67 78 64 76 69 66 83 72 62 39 28 28 25 33 35 35 33 24 27 30 29 34 63 72 100 100 100 100 90 78 72 70 82 86 85 74 50 41 36 30 43 64 76 90 98 100
96 94 98 90 95 98 89 81 88 77 54 51 35 26 33 36 33 33 30 29 24 27 33 36 32 36 54 68 81 92 98 97 95 81 76 62 67 75 76 80 70 55 45 36 33 41 50 73 95
100 100 100 100 100 100 95 91 100 79 61 47 43 44 44 42 49 45 41 33 32 32 32 32 36 34 39 56 56 56 61 74 84 87 76 73 64 63 54 50 53 63 66 55 44 43 32 36 62
64 94 100 100 100 100 100 84 89 99 92 93 87 75 88 87 80 64 51 40 33 33 36 34 36 35 34 36 37 43 55 61 65 73 82 82 75 63 57 70 64 47 50 64 52 45 40 36 45
67 79 100 100 100 100 100 100 100 100 100 100 100 100 100 99 84 65 60 43 39 38 39 46 50 48 43 37 37 35 36 36 39 44 47 51 53 52 51 46 48 57 47 38 47 56 60 39 47
61 47 92 100 100 100 100 100 100 100 100 100 100 100 100 99 94 88 62 52 48 43 41 42 57 61 65 60 52 46 36 35 36 36 35 34 36 53 64 71 53 38 39 43 45 39 40 47 43
77 79 55 47 63 75 82 89 96 98 100 100 100 100 100 100 100 99 82 75 62 46 46 44 49 62 67 63 62 58 50 47 40 45 48 39 36 38 58 92 95 60 35 30 30 32 34 26 31
57 69 77 60 48 49 56 63 73 93 100 100 100 100 100 93 89 90 91 82 59 54 57 60 70 72 74 76 76 72 66 61 66 56 55 58 59 54 45 39 42 50 58 52 27 23 24 24 24
100 97 67 83 97 62 51 62 77 75 73 78 87 80 92 100 91 91 85 80 84 90 99 100 97 88 86 94 90 73 72 68 62 78 72 63 60 56 53 41 34 29 25 22 20 20 18 20 22
100 100 100 100 100 70 67 47 47 52 65 81 88 98 100 100 100 96 84 100 97 100 100 100 100 94 77 94 100 86 76 69 61 53 54 55 52 44 40 34 30 26 21 19 18 15 15 15 16
100 100 100 86 99 90 98 69 60 54 94 84 76 95 99 100 100 100 99 97 100 99 100 98 100 91 85 74 82 84 80 76 69 65 59 58 52 45 38 29 21 16 15 17 16 14 13 14 13
100 98 100 100 100 100 100 100 100 100 98 100 100 94 99 100 95 89 89 100 100 100 94 91 86 84 80 71 72 83 91 80 76 72 64 55 48 41 34 26 21 15 15 14 14 14 13 13 13
98 90 95 99 83 90 100 100 100 91 100 100 78 86 89 100 100 100 97 94 95 94 93 88 86 91 93 81 71 79 86 77 72 65 56 48 40 33 26 21 19 14 12 11 12 11 10 11 12
69 65 72 78 77 81 73 88 72 94 100 100 100 100 100 100 98 92 95 98 98 97 88 95 91 92 92 92 76 88 87 81 67 58 45 34 33 27 22 21 18 14 13 12 13 12 13 13 11
82 82 89 100 95 95 94 99 100 100 100 100 100 100 100 100 100 100 100 96 98 95 90 99 100 100 95 97 88 82 69 64 57 47 37 33 31 25 22 20 15 14 12 11 12 12 14 14 15
96 92 91 92 95 92 92 98 100 94 100 100 100 100 100 100 100 100 96 93 78 82 89 100 98 100 100 91 73 72 62 55 47 37 34 36 26 25 20 17 14 14 13 12 12 12 11 12 13

GFSSGP_250_rhum_162.txt.gz
RH
100 100 91 91 100 89 66 41 60 71 99 75 67 68 51 41 37 72 32 29 35 26 24 25 27 39 48 22 18 20 17 15 16 16 17 21 25 20 21 26 26 25 20 18 18 20 26 28 29
100 76 78 99 100 100 84 54 66 44 74 60 87 84 74 53 56 31 22 19 19 19 24 31 25 22 20 18 16 15 15 14 14 16 20 26 38 35 22 27 31 29 24 21 22 22 26 32 31
100 100 97 98 72 100 98 79 64 51 44 41 100 100 100 88 79 36 26 22 20 21 22 25 24 24 21 19 18 18 17 16 15 18 22 24 34 34 29 29 28 27 29 29 28 32 36 33 30
87 92 68 80 100 99 100 89 82 65 51 38 40 100 100 97 91 59 30 28 25 23 22 21 26 26 24 23 22 23 18 16 15 18 23 27 32 34 35 33 33 30 34 44 38 42 37 37 41
83 92 74 53 78 41 100 100 100 99 68 44 35 69 99 100 94 70 46 36 31 26 27 25 31 31 26 25 27 23 19 17 16 17 31 29 57 56 48 41 37 32 48 50 52 42 42 52 51
100 88 90 97 100 56 100 100 99 69 51 53 38 88 100 100 100 95 57 44 52 49 47 44 33 31 28 32 31 24 22 17 15 20 26 34 44 59 60 77 70 50 38 55 57 45 50 58 59
95 100 100 100 100 90 86 98 76 67 51 71 50 45 97 100 100 98 99 100 99 81 50 61 57 40 40 44 32 28 27 21 16 19 26 40 42 44 75 100 99 86 57 61 47 57 61 63 68
100 100 100 100 100 76 69 72 78 80 82 81 72 52 55 98 100 100 89 57 42 36 37 45 52 50 55 46 31 25 23 19 17 17 26 36 38 37 78 91 91 99 95 83 88 74 61 67 94
95 86 100 99 93 89 52 74 68 63 90 97 98 96 54 53 55 48 38 35 32 37 48 56 59 63 56 34 29 27 22 19 17 16 25 34 39 44 43 61 82 100 100 96 94 100 80 61 81
71 71 67 92 75 73 73 64 71 86 100 100 100 100 99 59 58 55 47 44 48 54 58 49 38 33 25 24 26 27 22 19 18 19 21 42 46 53 44 46 53 61 88 100 97 100 100 100 100
100 100 100 100 100 100 99 93 74 98 100 100 100 75 66 58 57 56 62 60 52 75 62 41 32 23 22 21 23 24 24 21 21 18 22 33 51 61 51 49 42 38 54 55 83 100 100 100 100
86 92 100 100 100 99 87 98 100 100 100 100 100 82 70 83 70 52 50 53 60 73 72 58 38 24 19 18 20 25 26 25 22 23 20 27 39 57 70 58 57 48 41 43 56 40 60 100 99
47 46 70 78 85 66 87 95 100 100 100 100 100 82 66 51 40 36 38 40 47 59 50 54 57 48 33 27 22 27 26 31 25 26 26 28 60 77 65 82 67 50 37 42 41 48 39 43 99
30 32 26 48 65 60 86 86 99 96 94 80 68 67 69 71 56 54 57 67 54 53 59 51 47 44 42 34 27 26 31 34 28 25 28 29 44 86 100 100 88 66 59 46 42 43 42 43 41
27 27 28 27 34 45 75 84 100 81 100 100 100 100 100 100 100 100 100 100 86 68 45 32 26 38 50 46 43 44 45 40 33 30 29 30 29 31 65 87 100 100 99 67 48 42 44 42 40
32 38 44 44 27 26 36 53 58 65 57 60 80 85 97 100 100 99 87 100 100 100 52 27 33 57 70 63 51 53 53 41 38 35 34 32 32 34 30 35 52 76 99 100 95 63 44 39 40
26 44 58 55 51 38 73 88 66 49 34 39 35 41 56 63 72 100 100 100 80 59 58 69 67 55 67 82 72 67 60 46 46 41 38 39 38 40 40 36 33 36 52 68 76 94 87 52 46
42 38 33 45 44 47 90 95 82 100 99 83 46 38 44 58 69 89 93 100 100 100 100 100 100 100 100 100 100 99 87 64 59 49 42 39 36 35 41 42 42 40 40 36 42 54 65 74 66
44 38 58 76 79 58 39 52 78 73 100 100 100 56 41 49 53 72 80 91 91 88 83 77 83 88 100 100 100 83 81 81 69 56 52 44 40 33 34 36 41 41 38 40 41 42 57 58 55
85 87 56 76 100 98 94 62 82 72 70 74 88 83 91 63 70 65 47 52 69 83 87 86 86 77 63 59 65 76 86 85 83 69 65 51 40 36 32 39 35 38 40 40 39 37 39 39 45
85 55 63 76 82 65 75 98 100 100 100 87 100 100 74 67 43 39 45 45 50 50 70 77 82 77 71 66 58 53 58 60 69 79 73 61 47 57 66 79 67 45 45 43 41 41 38 36 34
79 83 98 100 100 100 99 61 100 95 100 95 73 70 98 88 84 70 93 88 80 66 64 56 62 68 75 95 94 83 65 64 94 85 91 85 75 68 77 51 54 62 56 47 45 43 38 36 33
94 100 100 100 100 100 100 100 94 100 100 100 92 95 97 87 100 100 100 100 84 81 85 78 83 90 76 84 94 100 99 100 86 90 84 88 83 65 70 76 76 57 47 45 46 41 38 36 34
100 100 100 100 100 100 100 100 88 100 100 100 100 100 100 100 100 100 100 100 100 100 100 100 92 93 97 100 100 100 99 89 82 76 62 79 95 100 82 78 60 59 46 43 41 35 33 34 33
100 100 100 93 100 100 100 100 100 100 100 100 100 91 70 59 84 96 100 100 100 100 94 72 67 80 83 100 100 100 98 100 68 76 92 93 71 67 60 72 65 57 50 43 38 32 28 28 26
100 100 100 100 100 100 100 100 100 100 100 100 76 67 80 59 46 48 64 53 68 71 63 55 46 70 98 100 100 100 100 99 100 76 75 98 88 86 91 75 65 56 45 33 30 26 27 29 31
100 100 100 100 100 87 71 69 60 57 52 43 40 38 41 46 51 62 53 47 45 45 43 57 64 96 100 100 100 100 97 100 100 96 100 100 99 98 92 70 58 46 37 31 26 28 34 36 29
100 100 99 83 69 71 72 84 80 56 49 48 49 54 46 53 62 59 53 56 59 63 74 84 100 100 100 100 97 98 100 100 98 100 100 92 96 82 65 61 47 38 31 30 34 37 29 24 19
100 100 100 100 100 93 62 62 62 50 41 42 42 46 50 51 62 65 63 64 74 87 96 99 100 99 98 98 93 94 100 100 100 100 100 87 74 63 49 30 29 33 40 39 31 27 24 21 19
100 100 100 91 74 60 54 46 54 46 42 44 42 52 50 42 49 58 59 68 82 97 99 100 100 100 100 100 100 100 100 100 100 100 83 68 61 39 33 33 33 28 27 26 24 21 19 18 19

GFSSGP_250_rhum_165.txt.gz
RH
99 100 100 100 100 100 35 31 90 86 71 53 43 60 38 25 50 38 80 98 100 90 63 24 20 20 27 32 28 23 20 18 17 16 15 14 13 12 13 17 19 31 20 18 23 22 24 23 21
45 100 100 100 100 99 62 48 70 100 84 72 58 48 39 36 26 30 38 46 54 44 29 23 23 22 24 29 28 28 24 21 20 20 18 16 14 12 13 18 24 31 26 24 25 25 25 23 27
32 70 100 100 100 96 80 74 97 100 100 80 77 58 47 43 31 23 59 83 69 49 36 32 26 25 26 27 31 33 30 26 24 23 20 18 15 13 15 17 24 32 29 29 26 28 29 35 39
26 36 49 100 100 100 70 55 100 100 52 62 100 76 65 53 38 33 34 93 96 70 53 37 32 27 26 26 33 34 34 26 26 29 23 23 19 15 14 20 26 41 38 36 32 36 44 47 43
23 28 45 100 100 82 69 97 88 49 35 94 100 100 81 55 43 37 54 98 100 96 84 53 42 41 47 50 43 36 32 31 35 29 31 28 22 16 15 22 30 49 52 58 50 41 49 48 42
28 26 51 99 100 81 92 100 100 75 87 100 99 70 60 58 48 46 71 100 100 100 91 82 90 76 66 46 51 42 37 42 46 36 26 23 20 17 16 20 32 37 77 72 79 66 47 50 45
44 36 49 100 100 63 72 94 100 89 82 90 61 52 51 63 66 58 58 100 100 100 100 100 79 44 33 30 36 54 55 54 45 28 26 23 19 17 16 20 30 34 60 78 89 88 84 68 60
100 61 78 88 89 63 45 96 100 97 77 70 66 66 54 65 93 81 57 57 74 89 81 55 38 33 34 45 55 61 60 47 29 30 26 21 19 17 17 22 26 33 62 75 83 90 100 99 98
91 65 68 50 54 64 51 46 66 100 96 91 93 70 54 100 100 94 93 63 50 49 46 42 40 37 42 42 50 38 29 25 20 23 23 20 18 17 17 25 32 31 49 70 75 77 90 100 94
32 100 100 100 100 100 100 95 79 87 99 100 100 90 100 100 100 100 97 79 62 56 55 56 50 43 46 55 41 33 23 19 16 18 21 21 22 19 19 23 33 44 46 58 81 100 100 91 78
42 100 98 88 88 89 99 100 100 100 100 98 93 100 100 100 100 100 97 68 59 60 56 49 55 54 59 71 55 41 48 41 28 21 17 19 24 22 21 24 29 45 53 56 46 46 63 95 100
84 72 58 54 42 55 58 59 69 89 96 100 96 100 100 100 100 100 92 74 70 63 48 43 46 42 49 45 49 52 43 39 37 31 22 18 22 24 23 24 27 39 40 41 48 50 47 46 50
47 54 47 36 26 26 25 29 40 59 66 100 100 100 100 100 100 96 96 92 91 84 83 96 97 88 82 62 42 31 26 22 22 24 20 16 21 26 26 25 26 28 49 65 60 54 49 41 44
48 28 29 27 25 30 24 23 27 43 56 54 56 85 99 97 97 100 99 100 100 100 100 100 98 99 100 87 60 34 33 47 41 25 28 34 26 31 29 25 26 28 36 57 72 98 79 45 44
38 39 30 26 31 37 36 35 24 28 41 73 89 93 85 77 59 58 69 78 81 97 97 100 100 92 88 97 62 56 65 69 67 76 77 59 48 43 39 34 28 27 28 31 63 77 78 76 79
34 26 26 39 23 25 42 58 42 38 33 46 51 45 55 59 45 47 32 24 32 41 54 71 89 100 98 90 100 97 100 100 100 99 94 64 70 52 50 42 41 31 27 28 31 37 80 98 93
48 59 57 79 41 26 25 27 32 49 62 57 62 66 63 59 100 99 77 57 38 34 41 57 77 96 95 100 100 100 100 100 100 100 100 100 86 74 54 56 48 40 36 31 31 32 32 35 80
36 53 88 95 98 48 34 32 30 70 73 84 76 63 41 52 61 65 93 95 93 70 56 56 48 30 42 57 65 66 72 76 76 80 79 83 82 86 62 58 56 48 40 38 35 35 39 36 32
34 47 84 91 54 78 71 41 57 68 82 74 47 52 58 62 100 100 100 100 70 57 54 53 66 74 82 62 56 44 35 35 42 47 52 52 54 54 53 54 63 58 49 39 36 36 40 40 40
39 39 57 98 100 87 30 35 52 54 50 76 90 67 56 60 50 40 50 75 100 99 81 81 66 56 56 54 55 60 54 44 48 54 55 92 87 68 58 47 54 57 75 64 50 38 36 40 40
46 44 58 91 97 96 56 45 68 99 100 60 59 94 97 82 98 100 100 100 100 100 99 100 94 93 86 98 100 98 98 95 84 67 70 64 76 100 94 75 59 61 57 70 60 50 40 38 33
43 51 62 50 81 34 45 42 99 100 100 81 78 99 100 100 100 100 100 100 100 100 100 100 99 96 88 90 100 100 100 100 100 96 87 69 71 94 81 85 96 99 89 88 79 76 72 56 43
50 67 78 62 41 61 70 100 90 100 100 100 100 100 100 100 100 100 100 100 100 100 100 100 100 100 100 99 100 100 100 100 100 100 81 64 57 95 100 99 79 88 84 63 96 97 74 73 71
64 60 83 98 92 92 100 100 100 100 99 100 100 100 100 91 63 62 57 66 82 81 85 97 78 82 100 100 100 100 100 100 100 86 79 64 58 72 100 99 79 82 82 65 69 70 70 64 48
94 93 100 100 100 90 100 93 98 88 99 100 100 90 91 82 83 80 66 68 58 51 43 40 42 39 48 70 75 86 88 83 81 69 57 52 58 87 96 90 86 77 83 66 54 69 68 56 73
75 100 100 100 98 100 100 100 100 97 92 100 100 92 99 100 98 68 41 41 44 56 63 68 74 82 84 84 89 80 71 66 65 71 66 80 91 91 85 92 93 73 78 76 66 68 59 69 58
88 100 100 89 92 57 58 77 100 100 100 100 100 100 90 67 49 44 46 45 46 50 51 50 67 86 89 95 97 84 82 75 89 100 94 100 100 100 100 100 96 90 75 62 54 60 61 47 35
100 86 81 87 71 79 86 96 100 100 100 100 100 77 63 50 47 43 47 58 54 62 64 62 68 69 66 77 81 69 70 91 99 100 100 100 100 94 75 77 72 69 61 60 66 56 40 30 21
100 100 100 100 100 100 90 92 100 85 89 85 72 58 47 42 44 44 44 54 53 54 60 45 40 49 48 52 66 73 71 80 90 96 93 94 95 93 85 78 69 67 67 65 46 34 23 20 22
100 100 100 94 90 84 90 86 100 83 69 50 38 44 38 40 34 31 31 34 35 32 30 31 35 33 38 46 52 55 58 72 81 78 89 94 97 83 77 66 50 50 46 40 21 23 22 17 14